Home > Weather > Bad Kreuznach > Past weeks

Flag for Germany Past Weather in Bad Kreuznach, Rhineland-Palatinate, Germany — Yesterday and Last 2 Weeks

Now
90 °F

Sunny.


Feels Like: 88 °F
Forecast: 64 / 93 °F
Wind: 3 mph from North

Location: Wiesbaden Airport

Current Time: Aug 26, 2016 at 3:55:52 PM

Latest Report: Aug 26, 2016 at 2:58 PM


Visibility: N/A

Pressure: 30.03 "Hg

Humidity: 31%

Dew Point: 55 °F

Location of Bad KreuznachLocation

Past Weather in Bad Kreuznach — Graph

°F

Bad Kreuznach Temperature Yesterday

Maximum temperature yesterday: 90 °F (at 4:58 PM)
Minimum temperature yesterday: 68 °F (at 6:58 AM)
Average temperature yesterday: 77 °F

High & Low Weather Summary for the Past Weeks

 TemperatureHumidityPressure
High90 °F (Aug 25, 4:58 PM)89% (Aug 22, 6:58 AM)30.39 "Hg (Aug 22, 6:58 AM)
Low52 °F (Aug 18, 6:58 AM)22% (Aug 16, 5:58 PM)29.79 "Hg (Aug 18, 5:58 PM)
Average68 °F58%30.10 "Hg
* Reported Aug 11 1:58 PM — Aug 26 1:58 PM, Bad Kreuznach, Weather by CustomWeather, © 2016

Note: Actual official high and low records may vary slightly from our data, if they occured in-between our weather recording intervals... More about our weather records

Advertising

Bad Kreuznach Weather History for the Previous 24 Hours

Scroll right to see more
 ConditionsComfort  
Time TempWeatherWind HumidityBarometerVisibility
1:58 PM
Fri, Aug 26
86 °FSunny.2 mph35%30.04 "HgN/A
12:58 PM82 °FSunny.5 mph37%30.04 "HgN/A
11:58 AM81 °FSunny.3 mph39%30.05 "HgN/A
10:58 AM78 °FSunny.1 mph39%30.04 "HgN/A
9:58 AM75 °FSunny.No wind44%30.04 "HgN/A
8:58 AM69 °FSunny.1 mph54%30.04 "HgN/A
7:58 AM65 °FSunny.No wind72%30.03 "HgN/A
6:58 AM62 °FClear.2 mph72%30.02 "HgN/A
5:58 AM61 °FClear.2 mph77%30.02 "HgN/A
4:58 AM62 °FClear.2 mph68%30.01 "HgN/A
3:58 AM64 °FClear.No wind64%30.00 "HgN/A
2:58 AM64 °FClear.1 mph64%29.98 "HgN/A
1:58 AM65 °FClear.No wind63%30.00 "HgN/A
12:58 AM66 °FClear.3 mph60%30.00 "HgN/A
11:58 PM
Thu, Aug 25
72 °FClear.1 mph50%29.99 "HgN/A
10:58 PM69 °FClear.No wind58%29.99 "HgN/A
9:58 PM71 °FClear.2 mph53%30.00 "HgN/A
8:58 PM79 °FSunny.No wind39%29.99 "HgN/A
7:58 PM84 °FSunny.5 mph33%29.97 "HgN/A
6:58 PM88 °FSunny.6 mph27%29.97 "HgN/A
5:58 PM90 °FSunny.12 mph26%29.98 "HgN/A
4:58 PM90 °FSunny.10 mph26%30.00 "HgN/A
3:58 PM88 °FSunny.10 mph27%30.01 "HgN/A
Weather by CustomWeather, © 2016

See weather overviewHow to use our weather pages